When you browse on this site, cookies collect data to enhance your experience and personalize the content and advertising you see.
Visit our Privacy Policy to learn more. By continuing to use the site, you agree to this use of cookies and data.
  • In United Kingdom
  • List of Countries
  • For 7 days
  • Water Temperature
  • Satellite Maps
  • Weather Map
  • Weather Widgets
  • user-avatar
    Login

    Hourly Weather Abergavenny

    Today, 21 February, Thursday

    Time Temperature Precipitation Wind Pressure Humidity
    00:00 +7°C° 0 mm 4 mps 749 mmHg 93%
    01:00 +8°C° 0.1 mm 5 mps 749 mmHg 93%
    02:00 +8°C° 0.1 mm 5 mps 749 mmHg 93%
    03:00 +8°C° 0.1 mm 6 mps 749 mmHg 93%
    04:00 +8°C° 0 mm 5 mps 749 mmHg 94%
    05:00 +8°C° 0 mm 5 mps 750 mmHg 94%
    06:00 +8°C° 0 mm 4 mps 750 mmHg 93%
    07:00 +8°C° 0 mm 4 mps 751 mmHg 93%
    08:00 +9°C° 0 mm 5 mps 751 mmHg 92%
    09:00 +9°C° 0 mm 5 mps 751 mmHg 91%
    10:00 +10°C° 0 mm 5 mps 751 mmHg 88%
    11:00 +10°C° 0 mm 5 mps 752 mmHg 85%
    12:00 +12°C° 0 mm 4 mps 753 mmHg 82%
    13:00 +12°C° 0 mm 4 mps 753 mmHg 81%
    14:00 +12°C° 0 mm 4 mps 753 mmHg 80%
    15:00 +13°C° 0 mm 4 mps 753 mmHg 79%
    16:00 +11°C° 0 mm 4 mps 753 mmHg 84%
    17:00 +10°C° 0 mm 3 mps 753 mmHg 88%
    18:00 +9°C° 0 mm 3 mps 754 mmHg 93%
    19:00 +8°C° 0 mm 3 mps 754 mmHg 93%
    20:00 +8°C° 0 mm 3 mps 754 mmHg 94%
    21:00 +7°C° 0 mm 3 mps 755 mmHg 94%
    22:00 +7°C° 0 mm 3 mps 755 mmHg 95%
    23:00 +5°C° 0 mm 3 mps 755 mmHg 95%

    Tomorrow, 22 February, Friday

    Time Temperature Precipitation Wind Pressure Humidity
    00:00 +5°C° 0 mm 3 mps 756 mmHg 95%
    01:00 +5°C° 0 mm 3 mps 756 mmHg 95%
    02:00 +6°C° 0 mm 2 mps 756 mmHg 94%
    03:00 +6°C° 0 mm 2 mps 756 mmHg 94%
    04:00 +6°C° 0 mm 2 mps 756 mmHg 94%
    05:00 +5°C° 0 mm 2 mps 756 mmHg 94%
    06:00 +5°C° 0 mm 2 mps 756 mmHg 94%
    07:00 +6°C° 0 mm 2 mps 757 mmHg 92%
    08:00 +7°C° 0 mm 3 mps 757 mmHg 91%
    09:00 +8°C° 0 mm 3 mps 758 mmHg 89%
    10:00 +9°C° 0 mm 3 mps 758 mmHg 83%
    11:00 +10°C° 0 mm 4 mps 758 mmHg 78%
    12:00 +12°C° 0 mm 4 mps 758 mmHg 72%
    13:00 +12°C° 0 mm 4 mps 758 mmHg 71%
    14:00 +13°C° 0 mm 4 mps 758 mmHg 70%
    15:00 +13°C° 0 mm 5 mps 758 mmHg 69%
    16:00 +11°C° 0 mm 4 mps 757 mmHg 75%
    17:00 +9°C° 0 mm 3 mps 757 mmHg 81%
    18:00 +8°C° 0 mm 3 mps 757 mmHg 87%
    19:00 +7°C° 0 mm 3 mps 757 mmHg 88%
    20:00 +5°C° 0 mm 3 mps 757 mmHg 89%
    21:00 +4°C° 0 mm 3 mps 757 mmHg 89%
    22:00 +4°C° 0 mm 3 mps 757 mmHg 89%
    23:00 +4°C° 0 mm 3 mps 757 mmHg 89%

    Day after tomorrow, 23 February, Saturday

    Time Temperature Precipitation Wind Pressure Humidity
    00:00 +4°C° 0 mm 3 mps 757 mmHg 88%
    01:00 +4°C° 0 mm 3 mps 757 mmHg 91%
    02:00 +5°C° 0 mm 3 mps 757 mmHg 93%
    03:00 +5°C° 0 mm 3 mps 756 mmHg 95%
    04:00 +5°C° 0 mm 3 mps 756 mmHg 96%
    05:00 +5°C° 0 mm 3 mps 756 mmHg 96%
    06:00 +5°C° 0 mm 3 mps 756 mmHg 97%
    07:00 +7°C° 0 mm 3 mps 756 mmHg 95%
    08:00 +7°C° 0 mm 3 mps 756 mmHg 94%
    09:00 +7°C° 0 mm 4 mps 756 mmHg 93%
    10:00 +10°C° 0 mm 4 mps 756 mmHg 89%
    11:00 +11°C° 0 mm 4 mps 756 mmHg 85%
    12:00 +12°C° 0 mm 4 mps 757 mmHg 80%
    13:00 +13°C° 0 mm 4 mps 756 mmHg 80%
    14:00 +13°C° 0 mm 4 mps 756 mmHg 79%
    15:00 +13°C° 0 mm 4 mps 756 mmHg 78%
    16:00 +12°C° 0 mm 3 mps 756 mmHg 83%
    17:00 +11°C° 0 mm 3 mps 757 mmHg 88%
    18:00 +9°C° 0 mm 2 mps 757 mmHg 93%
    19:00 +8°C° 0 mm 2 mps 757 mmHg 93%
    20:00 +8°C° 0 mm 2 mps 757 mmHg 94%
    21:00 +7°C° 0 mm 2 mps 757 mmHg 95%
    22:00 +8°C° 0 mm 1 mps 757 mmHg 95%
    23:00 +7°C° 0 mm 1 mps 758 mmHg 95%

    24 February, Sunday

    Time Temperature Precipitation Wind Pressure Humidity
    00:00 +6°C° 0 mm 1 mps 758 mmHg 95%
    01:00 +6°C° 0 mm 1 mps 758 mmHg 94%
    02:00 +6°C° 0 mm 1 mps 757 mmHg 94%
    03:00 +5°C° 0 mm 0 mps 757 mmHg 93%
    04:00 +6°C° 0 mm 1 mps 758 mmHg 93%
    05:00 +5°C° 0 mm 1 mps 758 mmHg 93%
    06:00 +5°C° 0 mm 1 mps 758 mmHg 93%
    07:00 +6°C° 0 mm 1 mps 758 mmHg 92%
    08:00 +7°C° 0 mm 1 mps 758 mmHg 91%
    09:00 +8°C° 0 mm 1 mps 759 mmHg 89%
    10:00 +8°C° 0 mm 2 mps 759 mmHg 84%
    11:00 +10°C° 0 mm 2 mps 759 mmHg 79%
    12:00 +13°C° 0 mm 2 mps 759 mmHg 74%
    13:00 +13°C° 0 mm 2 mps 759 mmHg 73%
    14:00 +14°C° 0 mm 2 mps 759 mmHg 72%
    15:00 +15°C° 0 mm 2 mps 759 mmHg 71%
    16:00 +13°C° 0 mm 2 mps 759 mmHg 77%
    17:00 +12°C° 0 mm 2 mps 759 mmHg 84%
    18:00 +10°C° 0 mm 1 mps 759 mmHg 90%
    19:00 +10°C° 0 mm 1 mps 760 mmHg 91%
    20:00 +9°C° 0 mm 1 mps 760 mmHg 92%
    21:00 +9°C° 0 mm 1 mps 760 mmHg 94%
    22:00 +8°C° 0 mm 1 mps 760 mmHg 94%
    23:00 +8°C° 0 mm 1 mps 760 mmHg 95%

    25 February, Monday

    Time Temperature Precipitation Wind Pressure Humidity
    00:00 +8°C° 0 mm 1 mps 760 mmHg 95%
    01:00 +7°C° 0 mm 1 mps 760 mmHg 95%
    02:00 +7°C° 0 mm 1 mps 760 mmHg 95%
    03:00 +7°C° 0 mm 1 mps 760 mmHg 95%
    04:00 +7°C° 0 mm 1 mps 760 mmHg 94%
    05:00 +6°C° 0 mm 1 mps 761 mmHg 94%
    06:00 +5°C° 0 mm 0 mps 761 mmHg 93%
    07:00 +6°C° 0 mm 0 mps 761 mmHg 91%
    08:00 +7°C° 0 mm 0 mps 761 mmHg 89%
    09:00 +9°C° 0 mm 1 mps 761 mmHg 86%
    10:00 +11°C° 0 mm 1 mps 761 mmHg 80%
    11:00 +12°C° 0 mm 1 mps 761 mmHg 74%
    12:00 +14°C° 0 mm 2 mps 761 mmHg 68%
    13:00 +14°C° 0 mm 2 mps 761 mmHg 67%
    14:00 +15°C° 0 mm 2 mps 761 mmHg 66%
    15:00 +15°C° 0 mm 2 mps 760 mmHg 64%
    16:00 +13°C° 0 mm 2 mps 760 mmHg 71%
    17:00 +12°C° 0 mm 2 mps 760 mmHg 77%
    18:00 +9°C° 0 mm 2 mps 760 mmHg 84%
    19:00 +8°C° 0 mm 2 mps 760 mmHg 83%
    20:00 +7°C° 0 mm 2 mps 760 mmHg 83%
    21:00 +6°C° 0 mm 2 mps 760 mmHg 83%
    22:00 +7°C° 0 mm 1 mps 759 mmHg 83%
    23:00 +6°C° 0 mm 1 mps 759 mmHg 82%

    26 February, Tuesday

    Time Temperature Precipitation Wind Pressure Humidity
    00:00 +6°C° 0 mm 1 mps 759 mmHg 81%
    01:00 +6°C° 0 mm 1 mps 759 mmHg 82%
    02:00 +5°C° 0 mm 1 mps 758 mmHg 83%
    03:00 +5°C° 0 mm 1 mps 758 mmHg 84%
    04:00 +5°C° 0 mm 1 mps 758 mmHg 85%
    05:00 +4°C° 0 mm 2 mps 757 mmHg 87%
    06:00 +4°C° 0 mm 2 mps 757 mmHg 89%
    07:00 +5°C° 0 mm 2 mps 757 mmHg 87%
    08:00 +6°C° 0 mm 2 mps 757 mmHg 85%
    09:00 +7°C° 0 mm 2 mps 757 mmHg 83%
    10:00 +9°C° 0 mm 3 mps 757 mmHg 78%
    11:00 +11°C° 0 mm 3 mps 757 mmHg 74%
    12:00 +12°C° 0 mm 4 mps 757 mmHg 70%
    13:00 +13°C° 0 mm 4 mps 756 mmHg 70%
    14:00 +13°C° 0 mm 5 mps 756 mmHg 70%
    15:00 +13°C° 0 mm 5 mps 755 mmHg 70%
    16:00 +12°C° 0 mm 4 mps 755 mmHg 77%
    17:00 +10°C° 0 mm 4 mps 755 mmHg 84%
    18:00 +8°C° 0 mm 3 mps 755 mmHg 91%
    19:00 +7°C° 0 mm 3 mps 755 mmHg 92%
    20:00 +5°C° 0 mm 3 mps 755 mmHg 92%
    21:00 +5°C° 0 mm 2 mps 755 mmHg 93%
    22:00 +5°C° 0 mm 2 mps 755 mmHg 93%
    23:00 +5°C° 0 mm 2 mps 754 mmHg 93%
    Show more